Flag for Tajikistan Weather past 2 weeks in Dushanbe, Tajikistan

Now
100 °F

Passing clouds.


Feels Like: 95 °F
Forecast: 66 / 95 °F
Wind: 1 mph from North

Location: Dushanbe Airport

Current Time: Aug 23, 2014 at 5:28:01 PM

Latest Report: Aug 23, 2014 at 4:30 PM


Visibility: N/A

Pressure: 29.71 "Hg

Humidity: 9%

Dew point: 32 °F

Location of DushanbeLocation

Historic Weather in Dushanbe — Graph

°F

Dushanbe temperature yesterday

Maximum temperature yesterday: 99 °F (at 3:00 PM)
Minimum temperature yesterday: 63 °F (at 5:30 AM)
Average temperature yesterday: 81 °F

Past Weeks' High & Low Weather Summary

 TemperatureHumidityPressure
High100 °F (Aug 23, 4:30 PM)56% (Aug 17, 5:00 AM)29.95 "Hg (Aug 17, 5:00 AM)
Low61 °F (Aug 18, 6:00 AM)7% (Aug 19, 3:00 PM)29.62 "Hg (Aug 8, 4:00 PM)
Average81 °F27%29.78 "Hg
* Reported Aug 8 4:00 PM — Aug 23 4:30 PM, Dushanbe, Weather by CustomWeather, © 2014

Note: Actual official high and low records may vary slightly from our data, if they occured in-between our weather recording intervals... More about our weather records

Advertising

Dushanbe weather history for previous 24 hours

 ConditionsComfort  
Time TempWeatherWind HumidityBarometerVisibility
4:30 PM
Aug 23
100 °FPassing clouds.1 mph9%29.71 "HgN/A
4:00 PM99 °FPassing clouds.3 mph10%29.71 "HgN/A
3:30 PM99 °FPassing clouds.3 mph10%29.71 "HgN/A
3:00 PM99 °FPassing clouds.1 mph9%29.74 "HgN/A
2:30 PM97 °FPassing clouds.6 mph11%29.74 "HgN/A
2:00 PM97 °FPassing clouds.3 mph10%29.74 "HgN/A
1:30 PM97 °FPassing clouds.3 mph12%29.77 "HgN/A
1:00 PM97 °FPassing clouds.3 mph12%29.77 "HgN/A
12:30 PM97 °FPassing clouds.1 mph13%29.77 "HgN/A
12:00 PM95 °FPassing clouds.3 mph12%29.80 "HgN/A
11:30 AM95 °FPassing clouds.1 mph14%29.80 "HgN/A
11:00 AM93 °FPassing clouds.1 mph14%29.80 "HgN/A
10:30 AM90 °FPassing clouds.1 mph17%29.83 "HgN/A
10:00 AM88 °FPassing clouds.1 mph22%29.83 "HgN/A
9:30 AM84 °FPassing clouds.3 mph23%29.83 "HgN/A
9:00 AM82 °FScattered clouds.1 mph26%29.83 "Hg6 mi
8:30 AM81 °FScattered clouds.1 mph24%29.83 "Hg5 mi
7:30 AM75 °FScattered clouds.1 mph29%29.80 "Hg5 mi
7:00 AM72 °FScattered clouds.1 mph44%29.80 "Hg5 mi
6:30 AM70 °FScattered clouds.1 mph38%29.80 "Hg5 mi
6:00 AM70 °FScattered clouds.No wind38%29.80 "Hg6 mi
5:30 AM66 °FPassing clouds.1 mph46%29.80 "HgN/A
5:00 AM68 °FPassing clouds.1 mph43%29.77 "Hg6 mi
4:30 AM68 °FPassing clouds.No wind40%29.77 "HgN/A
4:00 AM70 °FPassing clouds.No wind35%29.77 "HgN/A
3:30 AM68 °FPassing clouds.1 mph40%29.77 "HgN/A
3:00 AM70 °FPassing clouds.No wind43%29.77 "Hg5 mi
2:30 AM70 °FPassing clouds.1 mph40%29.77 "Hg4 mi
2:00 AM70 °FPassing clouds.No wind40%29.77 "Hg5 mi
1:30 AM70 °FPassing clouds.1 mph40%29.77 "Hg5 mi
1:00 AM70 °FClear.3 mph40%29.77 "Hg5 mi
12:30 AM73 °FClear.1 mph36%29.74 "Hg5 mi
12:00 AM72 °FClear.1 mph38%29.74 "Hg3 mi
11:30 PM
Aug 22
72 °FClear.3 mph38%29.74 "Hg3 mi
11:00 PM75 °FClear.1 mph31%29.74 "Hg4 mi
10:30 PM73 °FClear.3 mph38%29.74 "Hg4 mi
10:00 PM79 °FClear.3 mph28%29.74 "Hg5 mi
9:30 PM81 °FClear.3 mph28%29.74 "Hg5 mi
9:00 PM81 °FClear.1 mph30%29.74 "Hg4 mi
8:30 PM82 °FClear.1 mph25%29.71 "Hg5 mi
8:00 PM84 °FClear.1 mph20%29.71 "HgN/A
7:30 PM84 °FClear.1 mph22%29.68 "HgN/A
7:00 PM88 °FSunny.8 mph18%29.68 "HgN/A
6:30 PM91 °FSunny.10 mph16%29.65 "HgN/A
6:00 PM91 °FSunny.8 mph17%29.65 "HgN/A
5:30 PM95 °FSunny.8 mph12%29.65 "HgN/A
5:00 PM97 °FSunny.8 mph11%29.65 "HgN/A
Weather by CustomWeather, © 2014

See weather overviewHow to use our weather pages